FW4469 Weather Reports


Display with metric or nautical units.
time (UTC)temp
F
wind
direction
speed
MPH
gust
MPH
rain 1hr
in
rain 24hr
in
rain mn
in
humidity
%
barometer
mb
20260505173003 49 336 4.0 10.0 0.00 0.00 0.00 75 1014.1
20260505172008 49 336 4.0 8.0 0.00 0.00 0.00 77 1014.2
20260505171008 49 338 4.0 12.0 0.00 0.00 0.00 75 1014.3
20260505170008 49 338 4.0 10.0 0.00 0.00 0.00 75 1014.4
20260505165008 50 334 4.0 9.0 0.00 0.00 0.00 75 1014.3
20260505164008 49 334 4.0 9.0 0.00 0.00 0.00 74 1014.4
20260505163009 49 331 4.0 7.0 0.00 0.00 0.00 74 1014.3
20260505162008 49 340 4.0 8.0 0.00 0.00 0.00 71 1014.5
20260505161008 49 337 4.0 8.0 0.00 0.00 0.00 73 1014.3
20260505153003 51 329 4.0 9.0 0.00 0.00 0.00 73 1014.4
20260505152008 51 341 4.0 7.0 0.00 0.00 0.00 72 1014.4
20260505151008 50 337 4.0 9.0 0.00 0.00 0.00 74 1014.4
20260505125008 49 343 4.0 7.0 0.00 0.00 0.00 74 1014.8
20260505124008 50 340 4.0 9.0 0.00 0.00 0.00 74 1014.7
20260505123003 50 338 4.0 10.0 0.00 0.00 0.00 71 1014.8
20260505122008 50 337 4.0 9.0 0.00 0.00 0.00 72 1014.5
20260505121008 50 338 5.0 12.0 0.00 0.00 0.00 74 1014.6
20260505120008 50 338 4.0 8.0 0.00 0.00 0.00 75 1014.7
20260505115003 49 337 4.0 9.0 0.00 0.00 0.00 74 1014.6
20260505114217 48 341 4.0 9.0 0.00 0.00 0.00 74 1014.8
20260505113003 48 346 4.0 9.0 0.00 0.00 0.00 79 1014.8
20260505112003 47 332 4.0 9.0 0.00 0.00 0.00 79 1015.0
20260505111003 47 337 4.0 8.0 0.00 0.00 0.00 80 1014.9
20260505110223 47 338 4.0 10.0 0.00 0.00 0.00 78 1015.0
20260505102008 49 335 4.0 9.0 0.00 0.00 0.00 67 1015.2
20260505101003 49 335 4.0 8.0 0.00 0.00 0.00 70 1015.1
20260505100008 50 332 4.0 8.0 0.00 0.00 0.00 72 1015.0
20260505095008 50 334 4.0 9.0 0.00 0.00 0.00 69 1015.0
20260505094003 50 335 4.0 9.0 0.00 0.00 0.00 69 1015.0
20260505093008 49 341 4.0 8.0 0.00 0.00 0.00 72 1015.0
20260505092003 49 332 4.0 7.0 0.00 0.00 0.00 72 1015.0
20260505091008 48 336 4.0 7.0 0.00 0.00 0.00 75 1014.9
20260505090008 48 336 4.0 8.0 0.00 0.00 0.00 76 1015.1
20260505085008 49 325 4.0 8.0 0.00 0.00 0.00 73 1015.0
20260505084003 49 319 4.0 9.0 0.00 0.00 0.00 73 1014.9
20260505083008 48 332 5.0 14.0 0.00 0.00 0.00 77 1015.0
20260505082003 48 352 6.0 14.0 0.00 0.00 0.00 72 1015.1
20260505081222 48 341 10.0 16.0 0.00 0.00 0.00 74 1015.1
20260505080008 48 347 7.0 14.0 0.00 0.00 0.00 76 1015.3
20260505075003 47 306 6.0 13.0 0.00 0.00 0.00 76 1015.2
20260505074222 47 320 4.0 12.0 0.00 0.00 0.00 79 1015.3
20260505073009 46 274 3.0 9.0 0.00 0.00 0.00 79 1015.2
20260505072003 46 328 4.0 8.0 0.00 0.00 0.00 80 1015.5
20260505071222 46 335 4.0 9.0 0.00 0.00 0.00 81 1015.2
20260505070008 45 323 4.0 10.0 0.00 0.00 0.00 81 1015.2
20260505065003 45 330 3.0 10.0 0.00 0.00 0.00 81 1015.2
20260505064008 45 220 2.0 8.0 0.00 0.00 0.00 82 1015.1
20260505063009 44 327 2.0 7.0 0.00 0.00 0.00 81 1015.1
20260505062003 44 340 3.0 10.0 0.00 0.00 0.00 80 1015.0
20260505061003 44 328 6.0 14.0 0.00 0.00 0.00 79 1015.0
20260505060008 44 3 8.0 18.0 0.00 0.00 0.00 78 1015.0
20260505055003 44 346 10.0 17.0 0.00 0.00 0.00 77 1015.0
20260505054003 45 355 6.0 15.0 0.00 0.00 0.00 74 1014.9
20260505053217 45 344 6.0 20.0 0.00 0.00 0.00 73 1015.1
20260505052008 45 352 6.0 14.0 0.00 0.00 0.00 74 1014.9
20260505051008 45 348 5.0 11.0 0.00 0.00 0.00 74 1014.8
20260505041008 46 344 4.0 8.0 0.00 0.00 0.00 76 1014.7
20260505040008 46 342 4.0 10.0 0.00 0.00 0.00 78 1014.5
20260505035216 45 342 4.0 10.0 0.00 0.00 0.00 79 1014.5
20260505034008 45 336 4.0 8.0 0.00 0.00 0.00 80 1014.5
20260505033008 45 349 3.0 8.0 0.00 0.00 0.00 80 1014.8
20260505032218 45 340 2.0 5.0 0.00 0.00 0.00 80 1014.6
20260505031008 45 322 3.0 7.0 0.00 0.00 0.00 80 1015.0
20260505030008 45 329 2.0 6.0 0.00 0.00 0.00 81 1014.8
20260505025003 44 340 2.0 4.0 0.00 0.00 0.00 81 1014.9
20260505024003 44 343 1.0 3.0 0.00 0.00 0.00 82 1015.0
20260505023008 44 335 2.0 4.0 0.00 0.00 0.00 82 1015.1
20260505022003 45 345 1.0 3.0 0.00 0.00 0.00 82 1015.0
20260505021003 45 341 1.0 4.0 0.00 0.00 0.00 82 1015.2
20260505020008 45 333 2.0 5.0 0.00 0.00 0.00 82 1015.5
20260505015003 45 329 3.0 6.0 0.00 0.00 0.00 83 1015.3
20260505014008 44 334 3.0 7.0 0.00 0.00 0.00 82 1015.1
20260505013008 44 329 3.0 6.0 0.00 0.00 0.00 82 1015.3
20260505012003 44 331 3.0 8.0 0.00 0.00 0.00 79 1015.5
20260505011003 44 332 3.0 5.0 0.00 0.00 0.00 76 1015.6
20260505010008 45 341 3.0 6.0 0.00 0.00 0.00 74 1015.6
20260505005004 45 339 4.0 6.0 0.00 0.00 0.00 76 1015.7
20260505004008 45 341 4.0 6.0 0.00 0.00 0.00 78 1015.9
20260505003003 45 336 3.0 6.0 0.00 0.00 0.00 82 1015.8
20260505002003 45 337 4.0 6.0 0.00 0.00 0.00 82 1015.8
20260505001003 46 336 3.0 6.0 0.00 0.00 0.00 83 1015.9
20260505000008 46 341 4.0 10.0 0.00 0.00 0.00 82 1016.0
20260504235223 46 338 4.0 7.0 0.00 0.00 0.00 83 1016.2
20260504234223 46 335 4.0 7.0 0.00 0.00 0.00 83 1016.1
20260504233223 46 339 4.0 6.0 0.00 0.00 0.00 84 1016.0
20260504232217 46 340 4.0 7.0 0.00 0.00 0.00 85 1016.1
20260504231008 46 340 4.0 7.0 0.00 0.00 0.00 85 1016.0
20260504230003 46 344 4.0 7.0 0.00 0.00 0.00 88 1016.2
20260504225003 46 343 4.0 6.0 0.00 0.00 0.00 92 1016.2
20260504224008 46 343 4.0 8.0 0.00 0.00 0.00 92 1016.2
20260504223222 46 339 3.0 7.0 0.00 0.00 0.00 94 1016.3
20260504222008 46 337 3.0 6.0 0.00 0.00 0.00 96 1016.2
20260504221003 46 336 3.0 6.0 0.00 0.00 0.00 97 1016.3
20260504220008 46 337 3.0 7.0 0.00 0.00 0.00 97 1016.4
20260504215008 46 343 4.0 7.0 0.00 0.00 0.00 98 1016.6
20260504214003 46 341 4.0 8.0 0.00 0.00 0.00 97 1016.5
20260504213222 45 340 3.0 5.0 0.00 0.00 0.00 96 1016.6
20260504212008 45 338 2.0 4.0 0.00 0.00 0.00 95 1016.6
20260504211008 45 340 2.0 3.0 0.00 0.00 0.00 94 1016.3
20260504210008 45 344 2.0 3.0 0.00 0.00 0.00 94 1016.3
20260504205013 46 342 2.0 3.0 0.00 0.00 0.00 93 1016.5
20260504204008 46 332 3.0 5.0 0.00 0.00 0.00 93 1016.1
20260504203003 46 335 2.0 4.0 0.00 0.00 0.00 92 1016.2
20260504202008 47 331 3.0 4.0 0.00 0.00 0.00 91 1016.0
20260504201003 47 331 2.0 5.0 0.00 0.00 0.00 90 1016.0
20260504200229 48 323 3.0 4.0 0.00 0.00 0.00 90 1015.8
20260504195013 49 320 3.0 5.0 0.00 0.00 0.00 88 1016.0
20260504194008 49 328 3.0 5.0 0.00 0.00 0.00 86 1015.7
20260504193009 50 326 3.0 5.0 0.00 0.00 0.00 84 1015.7
20260504192013 51 325 3.0 5.0 0.00 0.00 0.00 82 1015.8
20260504191004 51 317 3.0 5.0 0.00 0.00 0.00 82 1015.6
20260504190217 52 320 4.0 7.0 0.00 0.00 0.00 80 1015.8
20260504185008 54 321 5.0 7.0 0.00 0.00 0.00 76 1015.7
20260504184008 55 322 4.0 7.0 0.00 0.00 0.00 75 1015.5
20260504183009 55 318 4.0 8.0 0.00 0.00 0.00 74 1015.3
20260504182004 56 315 5.0 9.0 0.00 0.00 0.00 73 1015.6
20260504181004 57 317 5.0 8.0 0.00 0.00 0.00 71 1015.2
20260504180008 57 313 5.0 8.0 0.00 0.00 0.00 72 1015.3
20260504175223 57 316 4.0 8.0 0.00 0.00 0.00 71 1015.2
20260504174008 57 319 4.0 8.0 0.00 0.00 0.00 74 1015.1